Погода в Красном Яре

Россия / Калининградская область     54°41′06″N   21°21′28″E
темп.,
°C
ветер,
м/с
пор.,
м/с
влажн.,
%
обл.,
%
осадки,
мм/ч
давл.,
гПа
погр.,
м
9 марта, вт
вт923:00−3с38730 0.0 1022385
02:00−4ссз25716 0.0 1022262
05:00−4ссз116895 0.0 102280
08:00−3ююв006297 0.0 102362
11:00−1ю114799 0.0 1023543
14:00+1ю224098 0.0 10231170
17:000ююз344598 0.0 1022977
20:00−3ю235991 0.0 102266
10 марта, ср
ср1023:00−3ю266072 0.0 1022160
02:00−3ююз366647 0.0 1022203
05:00−4ююз25660 0.0 1021153
08:00−3ююз25650 0.0 1022158
11:00+1ююз34480 0.0 1022643
14:00+3юз34440 0.0 10221428
17:00+2юз235049 0.0 1021583
20:00−2ю236735 0.0 102242
11 марта, чт
чт1123:00−2ю25670 0.0 1022143
02:00−2ююв37690 0.0 1021199
05:00−2ю49670 0.0 1020307
08:00−2ю511611 0.0 1019402
11:00+2ююв7114893 0.0 10171005
14:00+3ююв8134296 0.0 10141141
17:00+2ююв81447100 0.0 10091060
20:00+2ююв81655100 0.1 10061037
12 марта, пт
пт1223:000ю91695100 2.3 1004921
02:00+1ю71496100 5.4 1001546
05:00+2ююз4998100 1.8 1000344
08:00+2юз3899100 2.7 1000288
11:00+4з4993100 1.3 1001619
14:00+4зюз41089100 1.4 1004799
17:00+5з398687 0.2 1005839
20:00+2юз389188 0.3 1007204
13 марта, сб
сб1323:00+1ююз4990100 0.0 1007238
02:00+1ююз4119087 0.0 1006297
05:00+1ю5128753 0.0 1004358
08:00+2ю6158277 0.0 1003570
11:00+3юз51295100 1.1 1003664
14:00+6зюз6107498 1.5 10041273
17:00+6юз497780 0.4 1004923
20:00+3ю4118577 0.5 1003277